Regional Weather Roundup
Issued by NWS Goodland, KS

Home | Current Version | Previous Version | Graphics & Text | Print | Product List | Glossary On
Versions: 1 2 3 4 5 6 7 8 9 10 11 12 13 14 15 16 17 18 19 20 21 22 23 24 25 26 27 28 29 30 31 32 33 34 35 36 37 38 39 40 41 42 43 44 45 46 47 48 49 50
000
ASUS43 KGLD 012359
RWRGLD

GOODLAND FORECAST AREA HOURLY WEATHER ROUNDUP
NATIONAL WEATHER SERVICE GOODLAND KS
600 PM MDT SAT AUG 01 2015

...OFFICIAL OBSERVATIONS...

CITY           SKY/WX    TMP DP  RH WIND       PRES   REMARKS
GOODLAND KS    SUNNY     87  51  28 SE15      30.03S
HILL CITY KS   SUNNY     92  59  33 SE10      29.96F
IMPERIAL NEB   SUNNY     89  49  25 SE17      29.98S
MCCOOK NEB     SUNNY     92  55  28 S12       29.95F
AKRON CO       SUNNY     88  53  30 SE21G28   30.02F
BURLINGTON CO  SUNNY     86  54  33 SE20      30.05S
LIMON CO       PTSUNNY   83  53  35 SE14      30.09S
$$

...UNOFFICIAL OBSERVATIONS...

CITY           SKY/WX    TMP DP  RH WIND       PRES   REMARKS
COLBY KS       SUNNY     90  57  33 SE14      30.02F
NORTON KS      SUNNY     88  52  29 SE9       29.95F
SHARON SPRINGS   N/A     87  62  42 SE8G23      N/A
KIT CARSON CO    N/A     87  57  36 MISG        N/A
YUMA CO          N/A     87  58  37 S7          N/A
$$


USA.gov is the U.S. government's official web portal to all federal, state and local government web resources and services.